BAW45W EGCC-EHAM

Flight info

Callsign BAW45W
Flight time 0h 49m
Altitude 33000
Route SONEX L975 DESIG L603 LAMSO
Aircraft A35K/H-SDE2E3GHIJ3J4J5LM1ORWXY/LB1D1

Departure

Time 2026-05-07 12:49
Airport Manchester Airport (EGCC)

Arrival

Time 2026-05-07 13:38
Airport Amsterdam Airport Schiphol (EHAM)
Time Latitude Longitude Altitude Speed Heading
2026-05-07 12:12 53.36513 -2.27875 253 ft 0 kts 44°
2026-05-07 12:13 53.36453 -2.27780 253 ft 0 kts 45°
2026-05-07 12:32 53.36449 -2.27788 253 ft 2 kts 45°
2026-05-07 12:32 53.36435 -2.27811 253 ft 3 kts 45°
2026-05-07 12:33 53.36410 -2.27852 253 ft 3 kts 63°
2026-05-07 12:33 53.36407 -2.27879 253 ft 3 kts 111°
2026-05-07 12:33 53.36417 -2.27907 253 ft 3 kts 132°
2026-05-07 12:34 53.36428 -2.27927 253 ft 1 kts 135°
2026-05-07 12:34 53.36432 -2.27934 253 ft 0 kts 135°
2026-05-07 12:37 53.36430 -2.27932 253 ft 1 kts 142°
2026-05-07 12:37 53.36422 -2.27929 253 ft 2 kts 165°
2026-05-07 12:37 53.36400 -2.27937 253 ft 5 kts 200°
2026-05-07 12:37 53.36369 -2.27970 253 ft 6 kts 224°
2026-05-07 12:38 53.36331 -2.28026 253 ft 9 kts 216°
2026-05-07 12:38 53.36265 -2.28074 253 ft 12 kts 195°
2026-05-07 12:38 53.36194 -2.28040 253 ft 12 kts 142°
2026-05-07 12:38 53.36130 -2.27936 253 ft 15 kts 133°
2026-05-07 12:39 53.36105 -2.27891 253 ft 1 kts 126°
2026-05-07 12:39 53.36093 -2.27872 253 ft 3 kts 142°
2026-05-07 12:39 53.36070 -2.27871 253 ft 4 kts 192°
2026-05-07 12:39 53.36030 -2.27890 253 ft 7 kts 187°
2026-05-07 12:40 53.35975 -2.27860 253 ft 10 kts 156°
2026-05-07 12:40 53.35902 -2.27851 253 ft 12 kts 183°
2026-05-07 12:40 53.35812 -2.27864 253 ft 14 kts 185°
2026-05-07 12:40 53.35703 -2.27881 253 ft 17 kts 185°
2026-05-07 12:41 53.35576 -2.27902 253 ft 19 kts 186°
2026-05-07 12:41 53.35461 -2.27934 250 ft 7 kts 202°
2026-05-07 12:41 53.35410 -2.27997 249 ft 12 kts 221°
2026-05-07 12:41 53.35352 -2.28090 247 ft 10 kts 224°
2026-05-07 12:42 53.35301 -2.28167 243 ft 7 kts 214°
2026-05-07 12:42 53.35263 -2.28186 242 ft 1 kts 190°
2026-05-07 12:42 53.35248 -2.28189 241 ft 0 kts 188°
2026-05-07 12:43 53.35238 -2.28192 241 ft 4 kts 188°
2026-05-07 12:43 53.35193 -2.28202 241 ft 8 kts 184°
2026-05-07 12:44 53.35128 -2.28189 241 ft 10 kts 156°
2026-05-07 12:44 53.35073 -2.28120 244 ft 10 kts 139°
2026-05-07 12:44 53.35015 -2.28040 244 ft 12 kts 141°
2026-05-07 12:44 53.34941 -2.27941 244 ft 16 kts 141°
2026-05-07 12:45 53.34901 -2.27888 245 ft 0 kts 141°
2026-05-07 12:45 53.34897 -2.27883 245 ft 0 kts 141°
2026-05-07 12:46 53.34897 -2.27882 245 ft 1 kts 141°
2026-05-07 12:46 53.34881 -2.27861 244 ft 5 kts 143°
2026-05-07 12:46 53.34836 -2.27807 243 ft 11 kts 144°
2026-05-07 12:47 53.34806 -2.27781 241 ft 2 kts 170°
2026-05-07 12:47 53.34787 -2.27797 241 ft 5 kts 215°
2026-05-07 12:47 53.34752 -2.27853 240 ft 9 kts 227°
2026-05-07 12:47 53.34730 -2.27899 240 ft 0 kts 231°
2026-05-07 12:48 53.34729 -2.27901 240 ft 2 kts 231°
2026-05-07 12:48 53.34654 -2.28055 239 ft 51 kts 231°
2026-05-07 12:48 53.34254 -2.28879 228 ft 128 kts 231°
2026-05-07 12:49 53.33574 -2.30288 456 ft 167 kts 229°
2026-05-07 12:49 53.32980 -2.31940 1368 ft 171 kts 254°
2026-05-07 12:49 53.33157 -2.34059 1891 ft 205 kts 290°
2026-05-07 12:49 53.34107 -2.36061 2333 ft 234 kts 318°
2026-05-07 12:50 53.35462 -2.37739 2925 ft 255 kts 322°
2026-05-07 12:50 53.36930 -2.39506 3775 ft 263 kts 320°
2026-05-07 12:50 53.38418 -2.41373 4499 ft 269 kts 320°
2026-05-07 12:50 53.39881 -2.43226 4911 ft 270 kts 322°
2026-05-07 12:51 53.40992 -2.44274 4989 ft 273 kts 334°
2026-05-07 12:51 53.42802 -2.45312 4990 ft 276 kts 345°
2026-05-07 12:51 53.44723 -2.45404 5015 ft 280 kts 11°
2026-05-07 12:51 53.46446 -2.44049 5029 ft 279 kts 40°
2026-05-07 12:52 53.47594 -2.41488 5029 ft 276 kts 70°
2026-05-07 12:52 53.48041 -2.38345 5030 ft 273 kts 85°
2026-05-07 12:52 53.48270 -2.35175 5030 ft 274 kts 86°
2026-05-07 12:52 53.48496 -2.32046 5026 ft 273 kts 86°
2026-05-07 12:53 53.48738 -2.28870 5036 ft 273 kts 85°
2026-05-07 12:53 53.48983 -2.25707 5039 ft 273 kts 85°
2026-05-07 12:53 53.49228 -2.22591 5030 ft 273 kts 85°
2026-05-07 12:53 53.49530 -2.19403 5041 ft 275 kts 82°
2026-05-07 12:54 53.49877 -2.16277 5042 ft 274 kts 82°
2026-05-07 12:54 53.50229 -2.13130 5319 ft 275 kts 82°
2026-05-07 12:54 53.50574 -2.09941 6054 ft 280 kts 82°
2026-05-07 12:54 53.50917 -2.06678 7127 ft 280 kts 82°
2026-05-07 12:55 53.51251 -2.03472 8170 ft 283 kts 82°
2026-05-07 12:55 53.51592 -2.00199 9218 ft 286 kts 83°
2026-05-07 12:55 53.51938 -1.96875 10232 ft 291 kts 83°
2026-05-07 12:55 53.52299 -1.93399 10774 ft 314 kts 82°
2026-05-07 12:56 53.52467 -1.89601 11130 ft 337 kts 96°
2026-05-07 12:56 53.52123 -1.85596 11559 ft 356 kts 104°
2026-05-07 12:56 53.51526 -1.81492 12339 ft 365 kts 108°
2026-05-07 12:56 53.51384 -1.80646 12532 ft 366 kts 108°
2026-05-07 12:57 53.50751 -1.77092 13286 ft 371 kts 110°
2026-05-07 12:57 53.49965 -1.72908 14151 ft 376 kts 109°
2026-05-07 12:57 53.49179 -1.68752 14914 ft 382 kts 109°
2026-05-07 12:57 53.48379 -1.64450 15731 ft 386 kts 109°
2026-05-07 12:58 53.47585 -1.60101 16519 ft 391 kts 109°
2026-05-07 12:58 53.46795 -1.55708 17320 ft 396 kts 109°
2026-05-07 12:58 53.45995 -1.51240 18202 ft 400 kts 108°
2026-05-07 12:58 53.45191 -1.46753 18997 ft 404 kts 108°
2026-05-07 12:59 53.44377 -1.42212 19799 ft 407 kts 108°
2026-05-07 12:59 53.43564 -1.37704 20596 ft 410 kts 108°
2026-05-07 12:59 53.42732 -1.33099 21412 ft 414 kts 108°
2026-05-07 12:59 53.41891 -1.28455 22199 ft 418 kts 108°
2026-05-07 13:00 53.41042 -1.23751 22978 ft 422 kts 108°
2026-05-07 13:00 53.40185 -1.19011 23751 ft 425 kts 108°
2026-05-07 13:00 53.39320 -1.14250 24403 ft 429 kts 109°
2026-05-07 13:00 53.38439 -1.09443 25038 ft 432 kts 109°
2026-05-07 13:01 53.37550 -1.04612 25668 ft 436 kts 108°
2026-05-07 13:01 53.36661 -0.99794 26270 ft 440 kts 108°
2026-05-07 13:01 53.35751 -0.94868 26877 ft 444 kts 108°
2026-05-07 13:01 53.34835 -0.89911 27513 ft 448 kts 108°
2026-05-07 13:02 53.33905 -0.84894 28146 ft 451 kts 108°
2026-05-07 13:02 53.32969 -0.79853 28752 ft 454 kts 108°
2026-05-07 13:02 53.32026 -0.74786 29326 ft 458 kts 108°
2026-05-07 13:02 53.31074 -0.69685 29899 ft 461 kts 108°
2026-05-07 13:03 53.30114 -0.64541 30387 ft 465 kts 108°
2026-05-07 13:03 53.29145 -0.59364 30867 ft 467 kts 108°
2026-05-07 13:03 53.28167 -0.54177 31346 ft 469 kts 108°
2026-05-07 13:03 53.27182 -0.48966 31793 ft 471 kts 108°
2026-05-07 13:04 53.26203 -0.43797 32220 ft 473 kts 108°
2026-05-07 13:04 53.25214 -0.38572 32750 ft 472 kts 108°
2026-05-07 13:04 53.24204 -0.33266 33042 ft 470 kts 108°
2026-05-07 13:04 53.23226 -0.28144 33072 ft 468 kts 108°
2026-05-07 13:05 53.21247 -0.17811 33076 ft 468 kts 108°
2026-05-07 13:05 53.19246 -0.07460 33072 ft 468 kts 108°
2026-05-07 13:06 53.17248 0.02868 33062 ft 468 kts 108°
2026-05-07 13:06 53.15228 0.13229 33065 ft 469 kts 108°
2026-05-07 13:07 53.13215 0.23483 33069 ft 469 kts 108°
2026-05-07 13:07 53.11184 0.33786 33071 ft 469 kts 108°
2026-05-07 13:08 53.09141 0.44104 33079 ft 469 kts 108°
2026-05-07 13:08 53.07089 0.54409 33077 ft 469 kts 108°
2026-05-07 13:09 53.05029 0.64705 33080 ft 469 kts 108°
2026-05-07 13:09 53.02956 0.75006 33081 ft 469 kts 108°
2026-05-07 13:10 53.00882 0.85263 33083 ft 469 kts 108°
2026-05-07 13:10 52.98803 0.95490 33085 ft 468 kts 108°
2026-05-07 13:11 52.97187 1.05957 33092 ft 468 kts 101°
2026-05-07 13:11 52.95935 1.16560 33092 ft 468 kts 101°
2026-05-07 13:12 52.94724 1.27167 33092 ft 468 kts 101°
2026-05-07 13:12 52.93495 1.37775 33093 ft 468 kts 101°
2026-05-07 13:13 52.92244 1.48401 33099 ft 468 kts 101°
2026-05-07 13:13 52.90982 1.58993 33100 ft 469 kts 101°
2026-05-07 13:14 52.89707 1.69609 33106 ft 469 kts 101°
2026-05-07 13:14 52.88433 1.80145 33105 ft 469 kts 101°
2026-05-07 13:15 52.87790 1.85423 32983 ft 468 kts 101°
2026-05-07 13:15 52.87144 1.90714 32721 ft 469 kts 101°
2026-05-07 13:15 52.86485 1.96086 32457 ft 470 kts 101°
2026-05-07 13:15 52.85842 2.01314 32183 ft 472 kts 101°
2026-05-07 13:16 52.85184 2.06631 31783 ft 471 kts 101°
2026-05-07 13:16 52.84527 2.11922 30992 ft 469 kts 101°
2026-05-07 13:16 52.83868 2.17213 30119 ft 469 kts 101°
2026-05-07 13:16 52.83207 2.22501 29282 ft 466 kts 101°
2026-05-07 13:17 52.82553 2.27717 28632 ft 460 kts 101°
2026-05-07 13:17 52.81906 2.32859 28019 ft 454 kts 102°
2026-05-07 13:17 52.81262 2.37950 27399 ft 449 kts 102°
2026-05-07 13:17 52.80626 2.42966 26812 ft 444 kts 102°
2026-05-07 13:18 52.79992 2.47942 26217 ft 439 kts 102°
2026-05-07 13:18 52.79365 2.52865 25655 ft 434 kts 102°
2026-05-07 13:18 52.78745 2.57733 25094 ft 432 kts 102°
2026-05-07 13:18 52.78119 2.62586 24506 ft 431 kts 102°
2026-05-07 13:19 52.77494 2.67417 23924 ft 430 kts 103°
2026-05-07 13:19 52.76866 2.72239 23290 ft 428 kts 103°
2026-05-07 13:19 52.76243 2.77015 22688 ft 425 kts 103°
2026-05-07 13:19 52.75621 2.81780 22107 ft 422 kts 103°
2026-05-07 13:20 52.75012 2.86435 21540 ft 419 kts 103°
2026-05-07 13:20 52.74393 2.91124 20963 ft 416 kts 103°
2026-05-07 13:20 52.73777 2.95758 20397 ft 413 kts 103°
2026-05-07 13:20 52.72916 3.00256 19809 ft 409 kts 115°
2026-05-07 13:21 52.71596 3.04400 19227 ft 406 kts 121°
2026-05-07 13:21 52.70179 3.08418 18644 ft 404 kts 121°
2026-05-07 13:21 52.68769 3.12401 18006 ft 401 kts 121°
2026-05-07 13:21 52.67391 3.16302 17404 ft 397 kts 121°
2026-05-07 13:22 52.66002 3.20240 16835 ft 394 kts 121°
2026-05-07 13:22 52.64633 3.24118 16226 ft 391 kts 121°
2026-05-07 13:22 52.63271 3.27973 15639 ft 388 kts 120°
2026-05-07 13:22 52.61922 3.31789 15059 ft 384 kts 120°
2026-05-07 13:23 52.60587 3.35562 14470 ft 380 kts 120°
2026-05-07 13:23 52.59273 3.39329 13869 ft 378 kts 118°
2026-05-07 13:23 52.58324 3.43328 13270 ft 374 kts 104°
2026-05-07 13:23 52.57826 3.47509 12675 ft 370 kts 99°
2026-05-07 13:24 52.57409 3.51607 12095 ft 367 kts 100°
2026-05-07 13:24 52.56979 3.55774 11588 ft 361 kts 100°
2026-05-07 13:24 52.56561 3.59748 11456 ft 343 kts 100°
2026-05-07 13:24 52.56163 3.63507 11348 ft 325 kts 100°
2026-05-07 13:25 52.55772 3.67065 11278 ft 308 kts 102°
2026-05-07 13:25 52.55013 3.70234 11215 ft 294 kts 124°
2026-05-07 13:25 52.53793 3.72855 11046 ft 292 kts 131°
2026-05-07 13:25 52.52443 3.75415 10583 ft 293 kts 132°
2026-05-07 13:26 52.51114 3.77883 10103 ft 293 kts 132°
2026-05-07 13:26 52.49763 3.80392 9613 ft 292 kts 132°
2026-05-07 13:26 52.48433 3.82884 9164 ft 288 kts 132°
2026-05-07 13:26 52.47118 3.85348 8719 ft 285 kts 132°
2026-05-07 13:27 52.45878 3.87858 8315 ft 282 kts 128°
2026-05-07 13:27 52.44732 3.90454 7822 ft 281 kts 126°
2026-05-07 13:27 52.43683 3.93161 7318 ft 281 kts 123°
2026-05-07 13:27 52.42674 3.95910 6821 ft 280 kts 123°
2026-05-07 13:28 52.41672 3.98638 6345 ft 276 kts 122°
2026-05-07 13:28 52.40704 4.01224 6280 ft 267 kts 122°
2026-05-07 13:28 52.40048 4.02970 6274 ft 268 kts 122°
2026-05-07 13:28 52.38747 4.06428 5816 ft 269 kts 122°
2026-05-07 13:29 52.38083 4.08182 5463 ft 270 kts 122°
2026-05-07 13:29 52.37082 4.10787 4958 ft 271 kts 122°
2026-05-07 13:29 52.36067 4.13389 4435 ft 271 kts 122°
2026-05-07 13:29 52.35049 4.15975 3916 ft 270 kts 122°
2026-05-07 13:30 52.34031 4.18515 3399 ft 262 kts 122°
2026-05-07 13:30 52.33037 4.20967 2876 ft 257 kts 121°
2026-05-07 13:30 52.32045 4.23381 2384 ft 255 kts 122°
2026-05-07 13:30 52.31046 4.25788 2058 ft 254 kts 123°
2026-05-07 13:31 52.30065 4.28177 1996 ft 254 kts 122°
2026-05-07 13:31 52.29078 4.30574 1994 ft 254 kts 122°
2026-05-07 13:31 52.28100 4.32974 1999 ft 254 kts 122°
2026-05-07 13:31 52.27122 4.35365 1991 ft 250 kts 122°
2026-05-07 13:32 52.26181 4.37620 1997 ft 231 kts 122°
2026-05-07 13:32 52.25313 4.39696 2000 ft 213 kts 122°
2026-05-07 13:32 52.24498 4.41601 2004 ft 196 kts 122°
2026-05-07 13:32 52.23752 4.43351 1989 ft 179 kts 122°
2026-05-07 13:33 52.23083 4.44934 1997 ft 163 kts 122°
2026-05-07 13:33 52.22449 4.46432 2003 ft 159 kts 122°
2026-05-07 13:33 52.21834 4.47915 2029 ft 156 kts 120°
2026-05-07 13:33 52.21490 4.49574 2006 ft 155 kts 97°
2026-05-07 13:34 52.21472 4.51267 2030 ft 153 kts 82°
2026-05-07 13:34 52.21909 4.54532 1985 ft 140 kts 74°
2026-05-07 13:34 52.22186 4.56058 1993 ft 141 kts 68°
2026-05-07 13:35 52.22651 4.57468 1987 ft 142 kts 57°
2026-05-07 13:35 52.23175 4.58820 1989 ft 141 kts 57°
2026-05-07 13:35 52.23689 4.60151 1974 ft 140 kts 56°
2026-05-07 13:35 52.24198 4.61465 1970 ft 134 kts 57°
2026-05-07 13:36 52.24683 4.62729 1819 ft 129 kts 57°
2026-05-07 13:36 52.25163 4.63980 1488 ft 132 kts 56°
2026-05-07 13:36 52.25644 4.65255 1205 ft 129 kts 54°
2026-05-07 13:36 52.26114 4.66477 932 ft 126 kts 53°
2026-05-07 13:37 52.26579 4.67683 714 ft 123 kts 56°
2026-05-07 13:37 52.27027 4.68872 624 ft 123 kts 55°
2026-05-07 13:37 52.27472 4.69989 533 ft 123 kts 58°
2026-05-07 13:37 52.27930 4.71182 374 ft 124 kts 54°
2026-05-07 13:38 52.28394 4.72371 207 ft 126 kts 57°
2026-05-07 13:38 52.28880 4.73637 52 ft 133 kts 57°
2026-05-07 13:38 52.29340 4.74829 25 ft 103 kts 57°
2026-05-07 13:38 52.29561 4.75408 25 ft 18 kts 58°
2026-05-07 13:39 52.29589 4.75481 26 ft 14 kts 58°
2026-05-07 13:39 52.29645 4.75621 26 ft 15 kts 54°
2026-05-07 13:39 52.29727 4.75757 23 ft 18 kts 32°
2026-05-07 13:39 52.29842 4.75854 21 ft 20 kts 27°
2026-05-07 13:40 52.29976 4.75977 19 ft 23 kts 37°
2026-05-07 13:40 52.30071 4.76183 18 ft 24 kts 58°
2026-05-07 13:40 52.30149 4.76388 20 ft 14 kts 58°
2026-05-07 13:40 52.30195 4.76509 22 ft 14 kts 58°
2026-05-07 13:41 52.30250 4.76653 20 ft 17 kts 59°
2026-05-07 13:41 52.30320 4.76830 17 ft 21 kts 57°
2026-05-07 13:41 52.30402 4.77045 15 ft 24 kts 58°
2026-05-07 13:41 52.30486 4.77267 17 ft 21 kts 59°
2026-05-07 13:42 52.30563 4.77472 19 ft 21 kts 57°
2026-05-07 13:42 52.30638 4.77573 19 ft 13 kts 18°
2026-05-07 13:42 52.30735 4.77595 19 ft 16 kts
2026-05-07 13:42 52.30851 4.77604 19 ft 18 kts
2026-05-07 13:43 52.30984 4.77615 20 ft 13 kts
2026-05-07 13:43 52.30993 4.77615 20 ft 0 kts 354°
2026-05-07 13:43 52.31004 4.77600 18 ft 7 kts 321°
2026-05-07 13:43 52.31045 4.77517 17 ft 12 kts 306°
2026-05-07 13:44 52.31080 4.77366 14 ft 17 kts 275°
2026-05-07 13:44 52.31084 4.77150 10 ft 22 kts 271°
2026-05-07 13:44 52.31086 4.77030 6 ft 1 kts 271°
2026-05-07 13:44 52.31087 4.76984 6 ft 7 kts 271°
2026-05-07 13:45 52.31077 4.76879 3 ft 11 kts 238°
2026-05-07 13:45 52.31059 4.76857 3 ft 1 kts 206°
2026-05-07 13:45 52.31040 4.76859 3 ft 3 kts 172°
2026-05-07 13:45 52.31021 4.76873 4 ft 3 kts 153°
2026-05-07 13:46 52.31000 4.76896 4 ft 5 kts 144°
2026-05-07 13:46 52.30980 4.76923 4 ft 2 kts 139°
2026-05-07 13:46 52.30974 4.76931 4 ft 0 kts 138°